{"data":{"norad_id":60344,"intl_designator":"2024-136R","name":"STARLINK-32077","alt_names":[],"object_type":"PAYLOAD","status":"ACTIVE","operator":null,"country":"US","launch_date":"2024-08-02","launch_site_code":"AFETR","launch_vehicle":null,"mission":null,"orbit_class":"UNKNOWN","rcs_meters":null,"size_class":null,"mass_kg":null,"dimensions":null,"purposes":["comms"],"wikipedia_slug":null,"has_3d_model":false,"image_url":null,"decayed_at":null,"tle_current":{"epoch":"2026-09-21T08:01:19.011648Z","epoch_age_seconds":113581,"freshness":"FRESH","line1":"1 60344U 24136R   26264.33424782  .00000193  00000+0  16847-4 0  9998","line2":"2 60344  53.1589 245.8507 0001416  81.4627 278.6536 15.34387826119635","mean_motion":15.34387826,"eccentricity":0.0001416,"inclination_deg":53.1589,"raan_deg":245.8507,"arg_perigee_deg":81.4627,"mean_anomaly_deg":278.6536,"bstar":1.6847e-5,"rev_number":11963,"period_min":93.848502679661,"perigee_km":461.77075603824,"apogee_km":463.70809224156,"semimajor_km":6840.8764241399,"source":"CELESTRAK","updated_at":"2026-09-22T09:00:49.221836Z"}}}